Weather History for Peru, IN

Change the Weather History Date:

Monday, February 11, 2013

  Actual Average Record
Temperature  
Mean Temperature 39 °F -  
Max Temperature 48 °F 34 °F 73 °F (1999)
Min Temperature 30 °F 22 °F -17 °F (2014)
Degree Days  
Heating Degree Days 26    
Moisture  
Dew Point 30 °F    
Average Humidity 77    
Maximum Humidity 100    
Minimum Humidity 69    
Precipitation  
Precipitation 0.00 in - - ()
Sea Level Pressure  
Sea Level Pressure 29.82 in    
Wind  
Wind Speed 22 mph (WSW)    
Max Wind Speed 33 mph    
Max Gust Speed 41 mph    
Visibility 10 miles    
Events Rain , Snow    
Averages and records for this station are not official NWS values.
T = Trace of Precipitation, MM = Missing Value Source: NWS Daily Summary

Daily Weather History Graph

Daily Weather History Graph

Search for Another Location

Airport:

Trip Planner

Search our weather history database for the weather conditions in past years. The results will help you decide how hot, cold, wet, or windy it might be!

Date:

Astronomy

Feb. 11, 2013 Rise Set
Actual Time 7:43 AM EST 6:15 PM EST
Civil Twilight 7:14 AM EST 6:43 PM EST
Nautical Twilight 6:42 AM EST 7:15 PM EST
Astronomical Twilight 6:10 AM EST 7:47 PM EST
Moon 8:06 AM EST (2/11) 8:12 PM EST (2/11)
Length of Visible Light 11h 28m
Length of Day
10h 31m
Waxing Crescent, 3% of the Moon is Illuminated
Feb 11
Waxing Crescent
Feb 17
First Quarter
Feb 25
Full
Mar 4
Last Quarter
Mar 11
New

Hourly Weather History & Observations

Time (EST) Temp. Windchill Dew Point Humidity Pressure Visibility Wind Dir Wind Speed Gust Speed Precip Events Conditions
12:45 AM 48.2 °F - 48.2 °F 100% 29.65 in 10.0 mi SSW 16.1 mph - N/A   Mostly Cloudy
12:53 AM 48.2 °F - 48.2 °F 100% 29.65 in 10.0 mi SSW 17.3 mph - N/A   Scattered Clouds
12:55 AM 48.4 °F - 47.3 °F 96% 29.65 in 10.0 mi SSW 16.1 mph - N/A   Scattered Clouds
1:55 AM 47.3 °F - 46.6 °F 97% 29.64 in 10.0 mi SSW 17.3 mph - N/A   Clear
2:55 AM 46.9 °F - 42.8 °F 86% 29.65 in 10.0 mi SW 16.1 mph - N/A   Partly Cloudy
3:55 AM 45.9 °F 37.4 °F 36.7 °F 70% 29.65 in 10.0 mi WSW 24.2 mph 31.1 mph N/A   Clear
4:55 AM 41.4 °F 29.8 °F 33.6 °F 74% 29.69 in 10.0 mi West 33.4 mph 41.4 mph N/A   Overcast
5:55 AM 39.9 °F 30.2 °F 32.0 °F 73% 29.70 in 10.0 mi WSW 20.7 mph 31.1 mph N/A   Mostly Cloudy
6:35 AM 39.2 °F 27.8 °F 30.2 °F 70% 29.73 in 10.0 mi West 27.6 mph 34.5 mph N/A   Overcast
6:44 AM 37.4 °F 25.0 °F 30.2 °F 75% 29.73 in 10.0 mi West 29.9 mph 38.0 mph N/A   Overcast
6:55 AM 37.4 °F 24.8 °F 29.1 °F 72% 29.73 in 10.0 mi WSW 31.1 mph 39.1 mph N/A   Overcast
7:55 AM 36.0 °F 22.6 °F 27.0 °F 70% 29.75 in 10.0 mi WSW 32.2 mph 40.3 mph N/A   Overcast
8:55 AM 34.9 °F 23.3 °F 27.7 °F 75% 29.79 in 10.0 mi WSW 21.9 mph - N/A   Overcast
9:51 AM 33.8 °F 22.8 °F 28.4 °F 81% 29.81 in 10.0 mi West 18.4 mph 27.6 mph N/A   Overcast
9:55 AM 34.5 °F 22.8 °F 27.5 °F 76% 29.81 in 10.0 mi West 21.9 mph - N/A   Overcast
10:07 AM 33.8 °F 19.6 °F 26.6 °F 75% 29.81 in 10.0 mi West 32.2 mph 39.1 mph N/A   Overcast
10:31 AM 33.8 °F 21.0 °F 26.6 °F 75% 29.81 in 10.0 mi West 25.3 mph 36.8 mph N/A   Overcast
10:35 AM 33.8 °F 21.6 °F 26.6 °F 75% 29.83 in 10.0 mi West 23.0 mph 36.8 mph N/A Rain Light Rain
10:43 AM 33.8 °F 21.6 °F 26.6 °F 75% 29.83 in 10.0 mi West 23.0 mph 33.4 mph N/A   Overcast
10:55 AM 34.3 °F 21.5 °F 25.3 °F 70% 29.83 in 10.0 mi West 26.5 mph 39.1 mph 0.00 in   Overcast
11:04 AM 33.8 °F 20.8 °F 26.6 °F 75% 29.83 in 7.0 mi WSW 26.5 mph 35.7 mph N/A Snow Light Snow
11:55 AM 34.2 °F 22.1 °F 26.2 °F 73% 29.86 in 10.0 mi West 23.0 mph 33.4 mph 0.00 in   Overcast
12:55 PM 35.2 °F 22.5 °F 26.1 °F 69% 29.86 in 10.0 mi WSW 27.6 mph 40.3 mph N/A   Overcast
1:55 PM 34.5 °F 22.5 °F 26.1 °F 71% 29.87 in 10.0 mi West 23.0 mph 39.1 mph N/A   Overcast
2:32 PM 35.6 °F 22.7 °F 26.6 °F 70% 29.88 in 10.0 mi West 28.8 mph 34.5 mph N/A   Overcast
2:43 PM 33.8 °F 20.5 °F 26.6 °F 75% 29.88 in 10.0 mi West 27.6 mph 35.7 mph N/A   Overcast
2:55 PM 35.6 °F 23.4 °F 26.6 °F 70% 29.88 in 10.0 mi West 25.3 mph 31.1 mph N/A   Overcast
3:55 PM 34.7 °F 23.4 °F 27.3 °F 74% 29.91 in 10.0 mi West 20.7 mph - N/A   Overcast
4:55 PM 34.9 °F 22.7 °F 27.0 °F 73% 29.93 in 10.0 mi West 24.2 mph 29.9 mph N/A   Overcast
5:55 PM 33.8 °F 23.2 °F 26.1 °F 73% 29.96 in 10.0 mi West 17.3 mph 28.8 mph N/A   Overcast
7:55 PM 32.5 °F 20.5 °F 24.3 °F 72% 30.00 in 10.0 mi West 20.7 mph 28.8 mph N/A   Overcast
8:55 PM 32.0 °F 20.1 °F 25.3 °F 76% 30.00 in 10.0 mi West 19.6 mph - N/A   Overcast
9:55 PM 32.2 °F 20.7 °F 25.7 °F 77% 30.01 in 10.0 mi West 18.4 mph 26.5 mph N/A   Overcast
10:55 PM 30.6 °F 19.4 °F 24.3 °F 77% 30.02 in 10.0 mi West 16.1 mph - N/A   Clear
11:55 PM 30.0 °F 18.3 °F 24.8 °F 81% 30.03 in 10.0 mi West 17.3 mph - N/A   Partly Cloudy